SDM192 URMM-USSS

Flight info

Callsign SDM192
Flight time N/A
Altitude 35000
Route UGBES N82 NIRGA R807 UROBO P135 LOMBI
Aircraft B744/H-SDFHIRWXY/L

Departure

Time 2026-04-20 17:01
Airport Mineralnye Vody Airport (URMM)

Arrival

Time N/A
Airport Koltsovo Airport (USSS)
Time Latitude Longitude Altitude Speed Heading
2026-04-20 16:46 44.21767 43.09380 1066 ft 0 kts 212°
2026-04-20 16:57 44.21741 43.09356 1067 ft 8 kts 212°
2026-04-20 16:57 44.21673 43.09365 1070 ft 15 kts 141°
2026-04-20 16:58 44.21586 43.09514 1070 ft 19 kts 115°
2026-04-20 16:58 44.21520 43.09700 1067 ft 22 kts 107°
2026-04-20 16:58 44.21521 43.09843 1064 ft 21 kts 78°
2026-04-20 16:58 44.21566 43.10113 1054 ft 19 kts 76°
2026-04-20 16:59 44.21624 43.10242 1049 ft 0 kts 33°
2026-04-20 16:59 44.21626 43.10244 1049 ft 1 kts 33°
2026-04-20 16:59 44.21654 43.10270 1047 ft 11 kts 33°
2026-04-20 16:59 44.21739 43.10322 1043 ft 13 kts 355°
2026-04-20 17:00 44.21784 43.10276 1041 ft 0 kts 302°
2026-04-20 17:00 44.21784 43.10277 1041 ft 0 kts 302°
2026-04-20 17:01 44.21920 43.09977 1040 ft 79 kts 302°
2026-04-20 17:01 44.22360 43.09014 1062 ft 151 kts 302°
2026-04-20 17:01 44.22762 43.08171 1386 ft 166 kts 304°
2026-04-20 17:01 44.23635 43.06293 2354 ft 184 kts 302°
2026-04-20 17:02 44.24326 43.04743 3148 ft 198 kts 301°
2026-04-20 17:02 44.24808 43.03660 3668 ft 200 kts 302°
2026-04-20 17:02 44.25811 43.01417 4505 ft 211 kts 302°
2026-04-20 17:02 44.26332 43.00255 4928 ft 217 kts 302°
2026-04-20 17:03 44.26874 42.99046 5311 ft 226 kts 302°
2026-04-20 17:03 44.28320 42.95823 6134 ft 247 kts 301°
2026-04-20 17:03 44.29246 42.93758 6841 ft 259 kts 301°
2026-04-20 17:03 44.30297 42.91673 7605 ft 268 kts 315°
2026-04-20 17:04 44.31911 42.90374 8368 ft 279 kts 345°
2026-04-20 17:04 44.33846 42.90360 9172 ft 290 kts 13°
2026-04-20 17:04 44.35636 42.91700 10014 ft 300 kts 40°
2026-04-20 17:04 44.37026 42.93872 10911 ft 304 kts 49°
2026-04-20 17:05 44.37906 42.95393 11471 ft 307 kts 48°
2026-04-20 17:05 44.39928 42.98613 12001 ft 352 kts 45°
2026-04-20 17:05 44.41649 43.01174 12519 ft 367 kts 44°
2026-04-20 17:05 44.43412 43.03755 13327 ft 373 kts 44°
2026-04-20 17:06 44.45200 43.06392 14085 ft 379 kts 45°
2026-04-20 17:06 44.47001 43.09110 14812 ft 385 kts 45°
2026-04-20 17:06 44.48812 43.11869 15516 ft 392 kts 46°
2026-04-20 17:06 44.50668 43.14704 16219 ft 398 kts 46°
2026-04-20 17:07 44.52652 43.17398 16868 ft 402 kts 36°
2026-04-20 17:07 44.54200 43.18833 17311 ft 403 kts 26°
2026-04-20 17:07 44.57636 43.20858 18211 ft 407 kts 14°
2026-04-20 17:07 44.60375 43.21957 18881 ft 410 kts 11°
2026-04-20 17:08 44.63155 43.22922 19568 ft 414 kts 10°
2026-04-20 17:08 44.65958 43.23859 20234 ft 418 kts 10°
2026-04-20 17:08 44.68785 43.24807 20886 ft 422 kts 10°
2026-04-20 17:08 44.71658 43.25780 21524 ft 427 kts 10°
2026-04-20 17:09 44.74540 43.26764 22118 ft 433 kts 10°
2026-04-20 17:09 44.77488 43.27776 22722 ft 438 kts 10°
2026-04-20 17:09 44.80469 43.28802 23323 ft 443 kts 10°
2026-04-20 17:09 44.83385 43.29808 23897 ft 448 kts 10°
2026-04-20 17:10 44.86427 43.30857 24502 ft 452 kts 10°
2026-04-20 17:10 44.89479 43.31911 25094 ft 456 kts 10°
2026-04-20 17:10 44.92583 43.32984 25675 ft 461 kts 10°
2026-04-20 17:10 44.95721 43.34069 26264 ft 465 kts 10°